| time (UTC) | temp F | wind direction | speed MPH | gust MPH | rain 1hr in | rain 24hr in | rain mn in | humidity % | barometer mb |
| 20260504021553 | 52 | 232 | 3.0 | 6.0 | 0.00 | 0.00 | 0.00 | 66 | 1002.2 |
| 20260504021047 | 52 | 169 | 3.0 | 8.0 | 0.00 | 0.00 | 0.00 | 66 | 1002.1 |
| 20260504020548 | 52 | 230 | 3.0 | 8.0 | 0.00 | 0.00 | 0.00 | 65 | 1002.1 |
| 20260504020055 | 53 | 227 | 4.0 | 7.0 | 0.00 | 0.00 | 0.00 | 65 | 1002.1 |
| 20260504015538 | 53 | 179 | 4.0 | 10.0 | 0.00 | 0.00 | 0.00 | 65 | 1002.2 |
| 20260504015037 | 53 | 199 | 5.0 | 10.0 | 0.00 | 0.00 | 0.00 | 64 | 1002.3 |
| 20260504014512 | 53 | 199 | 4.0 | 9.0 | 0.00 | 0.00 | 0.00 | 64 | 1002.3 |
| 20260504014010 | 53 | 221 | 3.0 | 6.0 | 0.00 | 0.00 | 0.00 | 64 | 1002.4 |
| 20260504013507 | 53 | 167 | 3.0 | 6.0 | 0.00 | 0.00 | 0.00 | 63 | 1002.5 |
| 20260504013009 | 53 | 219 | 4.0 | 9.0 | 0.00 | 0.00 | 0.00 | 63 | 1002.5 |
| 20260504012504 | 53 | 189 | 5.0 | 10.0 | 0.00 | 0.00 | 0.00 | 62 | 1002.5 |
| 20260504012005 | 53 | 225 | 5.0 | 10.0 | 0.00 | 0.00 | 0.00 | 62 | 1002.5 |
| 20260504011504 | 54 | 210 | 5.0 | 9.0 | 0.00 | 0.00 | 0.00 | 62 | 1002.5 |
| 20260504011010 | 54 | 185 | 4.0 | 10.0 | 0.00 | 0.00 | 0.00 | 62 | 1002.5 |
| 20260504010818 | 54 | 236 | 4.0 | 10.0 | 0.00 | 0.00 | 0.00 | 61 | 1002.5 |
| 20260504010001 | 54 | 182 | 5.0 | 11.0 | 0.00 | 0.00 | 0.00 | 61 | 1002.4 |
| 20260504005502 | 54 | 192 | 5.0 | 11.0 | 0.00 | 0.00 | 0.00 | 61 | 1002.4 |
| 20260504005001 | 54 | 232 | 5.0 | 10.0 | 0.00 | 0.00 | 0.00 | 61 | 1002.5 |
| 20260504004459 | 54 | 151 | 5.0 | 10.0 | 0.00 | 0.00 | 0.00 | 60 | 1002.5 |
| 20260504003958 | 54 | 221 | 5.0 | 11.0 | 0.00 | 0.00 | 0.00 | 60 | 1002.5 |
| 20260504003502 | 54 | 214 | 4.0 | 11.0 | 0.00 | 0.00 | 0.00 | 60 | 1002.5 |
| 20260504003304 | 54 | 249 | 4.0 | 8.0 | 0.00 | 0.00 | 0.00 | 60 | 1002.6 |
| 20260504002459 | 55 | 165 | 4.0 | 7.0 | 0.00 | 0.00 | 0.00 | 60 | 1002.7 |
| 20260504001956 | 55 | 228 | 4.0 | 8.0 | 0.00 | 0.00 | 0.00 | 60 | 1002.7 |
| 20260504001454 | 55 | 198 | 4.0 | 8.0 | 0.00 | 0.00 | 0.00 | 59 | 1002.7 |
| 20260504000954 | 55 | 188 | 5.0 | 15.0 | 0.00 | 0.00 | 0.00 | 58 | 1002.7 |
| 20260504000453 | 55 | 225 | 6.0 | 15.0 | 0.00 | 0.00 | 0.00 | 57 | 1002.7 |
| 20260504000303 | 56 | 178 | 6.0 | 12.0 | 0.00 | 0.00 | 0.00 | 57 | 1002.7 |
| 20260503235455 | 56 | 259 | 4.0 | 11.0 | 0.00 | 0.00 | 0.00 | 56 | 1002.7 |
| 20260503235301 | 56 | 206 | 4.0 | 11.0 | 0.00 | 0.00 | 0.00 | 56 | 1002.8 |
| 20260503234452 | 56 | 169 | 5.0 | 11.0 | 0.00 | 0.00 | 0.00 | 56 | 1002.8 |
| 20260503234304 | 56 | 190 | 5.0 | 11.0 | 0.00 | 0.00 | 0.00 | 55 | 1002.8 |
| 20260503233451 | 56 | 217 | 5.0 | 11.0 | 0.00 | 0.00 | 0.00 | 56 | 1002.8 |
| 20260503232949 | 56 | 217 | 5.0 | 11.0 | 0.00 | 0.00 | 0.00 | 55 | 1002.8 |
| 20260503232809 | 56 | 215 | 6.0 | 16.0 | 0.00 | 0.00 | 0.00 | 55 | 1002.9 |
| 20260503231950 | 56 | 208 | 7.0 | 16.0 | 0.00 | 0.00 | 0.00 | 55 | 1002.8 |
| 20260503231449 | 56 | 202 | 8.0 | 18.0 | 0.00 | 0.00 | 0.00 | 54 | 1003.4 |
| 20260503230948 | 56 | 209 | 8.0 | 18.0 | 0.00 | 0.00 | 0.00 | 54 | 1003.4 |
| 20260503230445 | 56 | 229 | 8.0 | 18.0 | 0.00 | 0.00 | 0.00 | 53 | 1003.4 |
| 20260503225945 | 56 | 162 | 8.0 | 18.0 | 0.00 | 0.00 | 0.00 | 54 | 1003.5 |
| 20260503225443 | 56 | 215 | 8.0 | 18.0 | 0.00 | 0.00 | 0.00 | 53 | 1003.5 |
| 20260503224944 | 57 | 210 | 7.0 | 16.0 | 0.00 | 0.00 | 0.00 | 53 | 1003.5 |
| 20260503224444 | 57 | 276 | 8.0 | 17.0 | 0.00 | 0.00 | 0.00 | 52 | 1003.5 |
| 20260503223936 | 56 | 200 | 10.0 | 17.0 | 0.00 | 0.00 | 0.00 | 52 | 1003.5 |
| 20260503223414 | 56 | 180 | 9.0 | 19.0 | 0.00 | 0.00 | 0.00 | 52 | 1003.5 |
| 20260503222914 | 57 | 206 | 8.0 | 19.0 | 0.00 | 0.00 | 0.00 | 53 | 1003.9 |
| 20260503222412 | 57 | 212 | 8.0 | 17.0 | 0.00 | 0.00 | 0.00 | 54 | 1003.9 |
| 20260503221911 | 57 | 273 | 7.0 | 17.0 | 0.00 | 0.00 | 0.00 | 55 | 1003.9 |
| 20260503221410 | 57 | 254 | 8.0 | 18.0 | 0.00 | 0.00 | 0.00 | 55 | 1004.0 |
| 20260503221224 | 56 | 209 | 9.0 | 20.0 | 0.00 | 0.00 | 0.00 | 55 | 1003.9 |
| 20260503220409 | 56 | 282 | 10.0 | 20.0 | 0.00 | 0.00 | 0.00 | 55 | 1003.9 |
| 20260503215907 | 56 | 205 | 11.0 | 21.0 | 0.00 | 0.00 | 0.00 | 56 | 1003.9 |
| 20260503215407 | 56 | 214 | 9.0 | 21.0 | 0.00 | 0.00 | 0.00 | 56 | 1003.9 |
| 20260503214907 | 56 | 185 | 8.0 | 18.0 | 0.00 | 0.00 | 0.00 | 56 | 1003.9 |
| 20260503214407 | 56 | 209 | 7.0 | 18.0 | 0.00 | 0.00 | 0.00 | 57 | 1004.2 |
| 20260503213904 | 55 | 257 | 8.0 | 22.0 | 0.00 | 0.00 | 0.00 | 57 | 1004.2 |
| 20260503213403 | 55 | 190 | 8.0 | 22.0 | 0.00 | 0.00 | 0.00 | 57 | 1004.2 |
| 20260503212904 | 56 | 222 | 8.0 | 22.0 | 0.00 | 0.00 | 0.00 | 56 | 1004.4 |
| 20260503212403 | 56 | 207 | 8.0 | 19.0 | 0.00 | 0.00 | 0.00 | 60 | 1004.4 |
| 20260503212033 | 55 | 233 | 7.0 | 14.0 | 0.00 | 0.00 | 0.00 | 59 | 1004.5 |
| 20260503212001 | 56 | 224 | 8.0 | 19.0 | 0.00 | 0.00 | 0.00 | 58 | 1004.4 |
| 20260503211209 | 55 | 208 | 7.0 | 21.0 | 0.00 | 0.00 | 0.00 | 59 | 1004.4 |
| 20260503210402 | 55 | 225 | 9.0 | 21.0 | 0.00 | 0.00 | 0.00 | 59 | 1004.5 |
| 20260503205903 | 55 | 190 | 9.0 | 18.0 | 0.00 | 0.00 | 0.00 | 59 | 1004.9 |
| 20260503205402 | 55 | 248 | 8.0 | 26.0 | 0.00 | 0.00 | 0.00 | 61 | 1004.9 |
| 20260503204901 | 55 | 283 | 7.0 | 26.0 | 0.00 | 0.00 | 0.00 | 60 | 1004.9 |
| 20260503204359 | 54 | 277 | 7.0 | 17.0 | 0.00 | 0.00 | 0.00 | 60 | 1004.9 |
| 20260503204215 | 54 | 219 | 7.0 | 17.0 | 0.00 | 0.00 | 0.00 | 59 | 1004.9 |
| 20260503203358 | 54 | 316 | 6.0 | 13.0 | 0.00 | 0.00 | 0.00 | 59 | 1004.9 |
| 20260503202858 | 55 | 229 | 7.0 | 16.0 | 0.00 | 0.00 | 0.00 | 60 | 1004.8 |
| 20260503202350 | 55 | 248 | 7.0 | 20.0 | 0.00 | 0.00 | 0.00 | 61 | 1004.8 |
| 20260503201849 | 55 | 269 | 7.0 | 20.0 | 0.00 | 0.00 | 0.00 | 60 | 1004.8 |
| 20260503201344 | 55 | 215 | 7.0 | 17.0 | 0.00 | 0.00 | 0.00 | 60 | 1004.9 |
| 20260503201147 | 55 | 213 | 6.0 | 16.0 | 0.00 | 0.00 | 0.00 | 60 | 1005.0 |
| 20260503200506 | 56 | 271 | 8.0 | 17.0 | 0.00 | 0.00 | 0.00 | 59 | 1005.0 |
| 20260503200233 | 56 | 249 | 8.0 | 17.0 | 0.00 | 0.00 | 0.00 | 58 | 1005.0 |
| 20260503194813 | 57 | 213 | 9.0 | 22.0 | 0.00 | 0.00 | 0.00 | 55 | 1005.1 |
| 20260503194619 | 58 | 279 | 9.0 | 22.0 | 0.00 | 0.00 | 0.00 | 53 | 1004.7 |
| 20260503193815 | 59 | 248 | 9.0 | 21.0 | 0.00 | 0.00 | 0.00 | 52 | 1004.8 |
| 20260503193311 | 60 | 234 | 9.0 | 19.0 | 0.00 | 0.00 | 0.00 | 50 | 1004.9 |
| 20260503193115 | 61 | 218 | 8.0 | 19.0 | 0.00 | 0.00 | 0.00 | 51 | 1005.1 |
| 20260503192312 | 60 | 272 | 8.0 | 22.0 | 0.00 | 0.00 | 0.00 | 51 | 1005.1 |
| 20260503191810 | 61 | 213 | 8.0 | 22.0 | 0.00 | 0.00 | 0.00 | 51 | 1005.1 |
| 20260503191313 | 61 | 230 | 8.0 | 18.0 | 0.00 | 0.00 | 0.00 | 51 | 1005.3 |
| 20260503190809 | 60 | 205 | 9.0 | 16.0 | 0.00 | 0.00 | 0.00 | 51 | 1005.3 |
| 20260503190306 | 60 | 191 | 7.0 | 16.0 | 0.00 | 0.00 | 0.00 | 51 | 1005.3 |
| 20260503185805 | 60 | 179 | 6.0 | 16.0 | 0.00 | 0.00 | 0.00 | 53 | 1005.3 |
| 20260503185610 | 61 | 245 | 6.0 | 16.0 | 0.00 | 0.00 | 0.00 | 51 | 1005.3 |
| 20260503185112 | 61 | 166 | 7.0 | 17.0 | 0.00 | 0.00 | 0.00 | 51 | 1005.3 |
| 20260503184617 | 61 | 265 | 8.0 | 17.0 | 0.00 | 0.00 | 0.00 | 52 | 1005.4 |
| 20260503183802 | 61 | 184 | 8.0 | 14.0 | 0.00 | 0.00 | 0.00 | 50 | 1005.4 |
| 20260503183302 | 61 | 280 | 8.0 | 18.0 | 0.00 | 0.00 | 0.00 | 50 | 1005.4 |
| 20260503182803 | 61 | 265 | 8.0 | 18.0 | 0.00 | 0.00 | 0.00 | 50 | 1005.5 |
| 20260503182301 | 61 | 214 | 8.0 | 18.0 | 0.00 | 0.00 | 0.00 | 51 | 1005.5 |
| 20260503182109 | 60 | 193 | 7.0 | 18.0 | 0.00 | 0.00 | 0.00 | 50 | 1005.5 |
| 20260503181606 | 60 | 246 | 6.0 | 13.0 | 0.00 | 0.00 | 0.00 | 50 | 1005.6 |
| 20260503180759 | 60 | 254 | 8.0 | 17.0 | 0.00 | 0.00 | 0.00 | 49 | 1005.6 |
| 20260503180300 | 60 | 260 | 8.0 | 17.0 | 0.00 | 0.00 | 0.00 | 50 | 1005.6 |
| 20260503175802 | 60 | 277 | 6.0 | 17.0 | 0.00 | 0.00 | 0.00 | 50 | 1005.8 |
| 20260503175256 | 60 | 196 | 6.0 | 14.0 | 0.00 | 0.00 | 0.00 | 50 | 1005.8 |
| 20260503174756 | 60 | 279 | 7.0 | 14.0 | 0.00 | 0.00 | 0.00 | 51 | 1005.8 |
| 20260503174254 | 60 | 267 | 7.0 | 14.0 | 0.00 | 0.00 | 0.00 | 51 | 1005.9 |
| 20260503174105 | 59 | 290 | 7.0 | 14.0 | 0.00 | 0.00 | 0.00 | 53 | 1005.9 |
| 20260503173253 | 59 | 231 | 6.0 | 14.0 | 0.00 | 0.00 | 0.00 | 52 | 1005.8 |
| 20260503173104 | 59 | 250 | 6.0 | 14.0 | 0.00 | 0.00 | 0.00 | 53 | 1006.1 |
| 20260503172252 | 58 | 230 | 6.0 | 12.0 | 0.00 | 0.00 | 0.00 | 55 | 1006.1 |
| 20260503171752 | 58 | 215 | 6.0 | 14.0 | 0.00 | 0.00 | 0.00 | 54 | 1006.1 |
| 20260503171250 | 58 | 209 | 6.0 | 14.0 | 0.00 | 0.00 | 0.00 | 54 | 1006.6 |
| 20260503170750 | 58 | 254 | 6.0 | 13.0 | 0.00 | 0.00 | 0.00 | 55 | 1006.6 |
| 20260503170258 | 58 | 278 | 5.0 | 13.0 | 0.00 | 0.00 | 0.00 | 53 | 1006.6 |
| 20260503160205 | 52 | 250 | 4.0 | 8.0 | 0.00 | 0.00 | 0.00 | 58 | 1006.5 |
| 20260503150142 | 48 | 190 | 5.0 | 9.0 | 0.00 | 0.00 | 0.00 | 69 | 1006.6 |
| 20260503131030 | 47 | 265 | 4.0 | 11.0 | 0.00 | 0.00 | 0.00 | 63 | 1007.7 |
| 20260503130820 | 47 | 221 | 4.0 | 11.0 | 0.00 | 0.00 | 0.00 | 63 | 1007.7 |
| 20260503110559 | 35 | 116 | 0.0 | 1.0 | 0.00 | 0.00 | 0.00 | 84 | 1006.9 |
| 20260503110109 | 34 | 116 | 0.0 | 2.0 | 0.00 | 0.00 | 0.00 | 85 | 1006.9 |
| 20260503100236 | 32 | 127 | 0.0 | 0.0 | 0.00 | 0.00 | 0.00 | 83 | 1006.7 |
| 20260503090112 | 34 | 127 | 1.0 | 4.0 | 0.00 | 0.00 | 0.00 | 75 | 1007.6 |
| 20260503080950 | 36 | 162 | 1.0 | 4.0 | 0.00 | 0.00 | 0.00 | 71 | 1008.2 |
| 20260503080411 | 36 | 187 | 1.0 | 5.0 | 0.00 | 0.00 | 0.00 | 71 | 1008.2 |
| 20260503072850 | 35 | 192 | 2.0 | 5.0 | 0.00 | 0.00 | 0.00 | 73 | 1008.4 |
| 20260503072351 | 35 | 200 | 2.0 | 6.0 | 0.00 | 0.00 | 0.00 | 74 | 1008.3 |
| 20260503072145 | 35 | 167 | 1.0 | 6.0 | 0.00 | 0.00 | 0.00 | 74 | 1008.3 |
| 20260503071338 | 34 | 140 | 1.0 | 5.0 | 0.00 | 0.00 | 0.00 | 74 | 1008.6 |
| 20260503070835 | 34 | 175 | 1.0 | 5.0 | 0.00 | 0.00 | 0.00 | 74 | 1008.6 |
| 20260503070552 | 34 | 155 | 1.0 | 2.0 | 0.00 | 0.00 | 0.00 | 74 | 1008.6 |
| 20260503054455 | 33 | 132 | 0.0 | 0.0 | 0.00 | 0.00 | 0.00 | 76 | 1009.6 |
| 20260503053953 | 33 | 132 | 0.0 | 1.0 | 0.00 | 0.00 | 0.00 | 76 | 1009.6 |
| 20260503053441 | 33 | 132 | 0.0 | 1.0 | 0.00 | 0.00 | 0.00 | 75 | 1009.6 |
| 20260503052928 | 33 | 131 | 0.0 | 2.0 | 0.00 | 0.00 | 0.00 | 75 | 1009.7 |
| 20260503052917 | 33 | 131 | 0.0 | 2.0 | 0.00 | 0.00 | 0.00 | 75 | 1009.7 |
| 20260503051845 | 34 | 131 | 0.0 | 2.0 | 0.00 | 0.00 | 0.00 | 75 | 1009.7 |
| 20260503051259 | 34 | 131 | 0.0 | 1.0 | 0.00 | 0.00 | 0.00 | 75 | 1010.0 |
| 20260503050800 | 34 | 131 | 0.0 | 1.0 | 0.00 | 0.00 | 0.00 | 74 | 1010.0 |
| 20260503050528 | 34 | 131 | 0.0 | 0.0 | 0.00 | 0.00 | 0.00 | 74 | 1010.0 |
| 20260503045743 | 34 | 131 | 0.0 | 2.0 | 0.00 | 0.00 | 0.00 | 74 | 1010.1 |
| 20260503045159 | 34 | 131 | 0.0 | 4.0 | 0.00 | 0.00 | 0.00 | 74 | 1010.1 |
| 20260503044656 | 34 | 131 | 0.0 | 4.0 | 0.00 | 0.00 | 0.00 | 75 | 1010.1 |
| 20260503044151 | 34 | 122 | 0.0 | 0.0 | 0.00 | 0.00 | 0.00 | 74 | 1010.3 |
| 20260503043647 | 34 | 122 | 0.0 | 0.0 | 0.00 | 0.00 | 0.00 | 74 | 1010.3 |
| 20260503043149 | 34 | 122 | 0.0 | 0.0 | 0.00 | 0.00 | 0.00 | 74 | 1010.4 |
| 20260503042640 | 34 | 122 | 0.0 | 0.0 | 0.00 | 0.00 | 0.00 | 74 | 1010.5 |
| 20260503042101 | 35 | 127 | 0.0 | 0.0 | 0.00 | 0.00 | 0.00 | 73 | 1010.5 |
| 20260503041556 | 35 | 127 | 0.0 | 2.0 | 0.00 | 0.00 | 0.00 | 72 | 1010.5 |
| 20260503041057 | 35 | 149 | 1.0 | 2.0 | 0.00 | 0.00 | 0.00 | 71 | 1010.7 |
| 20260503040549 | 35 | 149 | 1.0 | 2.0 | 0.00 | 0.00 | 0.00 | 70 | 1010.7 |
| 20260503040100 | 36 | 149 | 1.0 | 2.0 | 0.00 | 0.00 | 0.00 | 70 | 1010.8 |
| 20260503035545 | 36 | 149 | 0.0 | 2.0 | 0.00 | 0.00 | 0.00 | 69 | 1010.8 |
| 20260503035044 | 36 | 149 | 0.0 | 2.0 | 0.00 | 0.00 | 0.00 | 69 | 1010.8 |
| 20260503034514 | 35 | 149 | 1.0 | 2.0 | 0.00 | 0.00 | 0.00 | 70 | 1010.8 |
| 20260503033958 | 35 | 146 | 1.0 | 5.0 | 0.00 | 0.00 | 0.00 | 70 | 1010.8 |
| 20260503033449 | 35 | 146 | 1.0 | 5.0 | 0.00 | 0.00 | 0.00 | 70 | 1010.8 |
| 20260503032948 | 36 | 131 | 1.0 | 2.0 | 0.00 | 0.00 | 0.00 | 71 | 1010.9 |
| 20260503032449 | 36 | 131 | 1.0 | 2.0 | 0.00 | 0.00 | 0.00 | 70 | 1010.9 |
| 20260503031950 | 36 | 160 | 1.0 | 2.0 | 0.00 | 0.00 | 0.00 | 70 | 1011.0 |
| 20260503031848 | 35 | 169 | 1.0 | 2.0 | 0.00 | 0.00 | 0.00 | 71 | 1010.9 |
| 20260503031844 | 36 | 167 | 1.0 | 2.0 | 0.00 | 0.00 | 0.00 | 70 | 1010.9 |
| 20260503030444 | 35 | 175 | 0.0 | 2.0 | 0.00 | 0.00 | 0.00 | 72 | 1010.9 |
| 20260503030151 | 35 | 175 | 1.0 | 4.0 | 0.00 | 0.00 | 0.00 | 72 | 1010.8 |
| 20260503025654 | 34 | 185 | 1.0 | 4.0 | 0.00 | 0.00 | 0.00 | 73 | 1010.8 |
| 20260503024854 | 34 | 186 | 0.0 | 4.0 | 0.00 | 0.00 | 0.00 | 74 | 1010.8 |
| 20260503024641 | 34 | 296 | 0.0 | 0.0 | 0.00 | 0.00 | 0.00 | 75 | 1010.8 |
| 20260503023848 | 35 | 296 | 0.0 | 0.0 | 0.00 | 0.00 | 0.00 | 75 | 1010.9 |
| 20260503023309 | 35 | 296 | 0.0 | 0.0 | 0.00 | 0.00 | 0.00 | 75 | 1010.9 |
| 20260503022806 | 35 | 296 | 0.0 | 0.0 | 0.00 | 0.00 | 0.00 | 74 | 1011.0 |
| 20260503022304 | 35 | 296 | 0.0 | 0.0 | 0.00 | 0.00 | 0.00 | 73 | 1011.0 |